Карточка аэропорта URSS

Внимание!
Информация на этой странице в стадии наполнения.
Если вы не увидели какой-то информации, или заметили неточность - пожалуйста сообщите нам!
Спасибо!
Команда RU-STAFF
Название аэропортаСочи
Название аэропорта (англ.)Sochi
Превышение89 ft. (27.1 m.)
Координаты43°26.634', 39°56.55'
Высота перехода13000 ft
Эшелон переходаQNH>=977hPa: FL150; QNH<977hPa: FL160
Коды ответчика1060-1077
Зона ОрВДРостов-на-Дону РПИ (URRV)
Данные METARURSS 230530Z 06002MPS 9999 -SHRA BKN020CB OVC083 25/22 Q1007 R02/010070 R06/010070 NOSIG RMK R06/06004MPS MT OBSC QFE754
Проноз погоды (TAF)URSS 230455Z 2306/2406 16004G09MPS 9999 SCT016 BKN030CB BKN100 TEMPO 2306/2317 VRB07G12MPS 2100 -TSRA SCT010 BKN020CB OVC100 BECMG 2317/2318 05003G08MPS TEMPO 2318/2406 VRB08G14MPS 1200 TSRA SCT008 BKN020CB OVC100
NOTAMshow/hide NOTAM
AWOS   TABLE

Информация о ВПП

ВПП Длина ВПП (м.) Покрытие Курс ВПП Частота ILS
242890Цементобетон238 
202500Цементобетон202 
022500Цементобетон22110.5
062890Цементобетон58111.1

Диспетчерские позиции

Позывной Наименование органа УВД Частота
URSS_GNDСочи-Руление119.000
URSSFM1119.000
URSS_R_APPСочи-Круг119.700
URSS_TWRСочи-Старт121.200
URSS_APPСочи-Подход124.600
URSS_DELСочи-Деливери132.700



Спутниковое изображение